Hourly Data Report for January 02, 2018

All times are specified in Local Standard Time (LST). Add 1 hour to adjust for Daylight Saving Time where and when it is observed.

ABBOTSFORD A
BRITISH COLUMBIA

49°01'31.000" N
122°21'36.000" W
59.10 m
1100031
71108
YXX

Download Data

Hourly Data (January 2018)
Hourly Data Report for January 2, 2018
Temp Definition
°C
Dew Point Temp Definition
°C
Rel Hum Definition
%
Wind Dir Definition
10's deg

Wind Spd Definition
km/h
Visibility Definition
km
Stn Press Definition
kPa
Hmdx Definition


Wind Chill Definition


Weather Definition


TIME
00:00 -3.0 -5.4 84 1 13 24.1 102.43   -8 LegendNANA
01:00 -2.8 -5.3 83 36 13 24.1 102.41   -7 Mainly Clear
02:00 -2.9 -5.2 84 2 16 24.1 102.43   -8 LegendNANA
03:00 -2.8 -5.1 84 36 11 24.1 102.42   -7 LegendNANA
04:00 -2.8 -5.2 83 1 18 24.1 102.38   -8 Mainly Clear
05:00 -2.8 -5.2 84 4 10 24.1 102.33   -7 LegendNANA
06:00 -3.0 -5.1 86 5 5 24.1 102.28   -5 LegendNANA
07:00 -2.6 -4.6 86 1 10 48.3 102.24   -6 Mostly Cloudy
08:00 -1.7 -4.6 81 4 9 48.3 102.19   -5 LegendNANA
09:00 -1.6 -3.9 84 3 9 48.3 102.17   -5 LegendNANA
10:00 -0.6 -3.7 80 3 7 48.3 102.20   -3 Cloudy
11:00 0.3 -2.5 81 2 15 48.3 102.16     LegendNANA
12:00 0.6 -2.5 79 3 9 48.3 102.12     LegendNANA
13:00 0.7 -2.7 78 5 7 48.3 102.06     Cloudy
14:00 0.9 -2.2 80 1 7 48.3 101.98     LegendNANA
15:00 0.9 -1.8 82 2 12 48.3 101.89     LegendNANA
16:00 0.5 -2.2 82 1 10 48.3 101.88     Cloudy
17:00 0.7 -2.1 81 6 7 48.3 101.88     LegendNANA
18:00 0.6 -1.1 88 36 8 24.1 101.86     LegendNANA
19:00 0.6 -1.8 84 2 7 24.1 101.87     Cloudy
20:00 0.5 -1.7 86 1 8 24.1 101.85     LegendNANA
21:00 -0.2 -2.3 86 2 9 24.1 101.83   -3 LegendNANA
22:00 -0.7 -2.7 86 34 11 24.1 101.81   -4 Mostly Cloudy
23:00 -1.0 -2.9 87 1 10 24.1 101.82   -5 LegendNANA

Notes on Data Quality.

Legend

  • E = Estimated
  • M = Missing
  • NA = Not Available
Date modified: